User: anonymous   Login
Location: Unspecified
(0.0000°N, 0.0000°E)
Time: 07:15:37
(UTC+00:00)
Language:

SRMSAT - Orbit

View from above orbital plane
View from above orbital plane
View from above satellite
View from above satellite

Ground track
Ground track

The orbit data is extracted from the following two-line orbital elements,

1 37841U 11058D   20048.20284587  .00000309  00000-0  24621-4 0  9999
2 37841  19.9734 359.8926 0011738 352.7367 136.8591 14.10649558431119
Epoch (UTC): 17 February 2020 04:52:05
Eccentricity: 0.0011738
inclination: 19.9734°
perigee height: 848 km
apogee height: 865 km
right ascension of ascending node: 359.8926°
argument of perigee: 352.7367°
revolutions per day: 14.10649558
mean anomaly at epoch: 136.8591°
orbit number at epoch: 43111

The dashed part of the orbit path shows where the satellite is in the earth's shadow,  

DLR